RH
9 12 35 72 56 84 100 100 100 92 73 69 33 41 61 57 99 100 100 100 100 100 100 74 51 100 100 78 70 72 76 94 99 84 59 77 83 90 82 88 94 100 98 75 58 44 29 43 50
6 12 15 48 70 44 65 100 100 100 95 59 41 43 54 71 56 82 70 100 100 100 100 81 52 79 100 83 67 80 77 72 73 98 73 52 74 94 66 64 76 89 100 100 51 47 30 32 44
6 7 17 20 54 66 41 65 100 100 98 100 58 40 60 57 42 65 75 92 58 100 100 92 61 41 99 89 70 75 84 88 76 74 88 59 43 57 68 60 66 77 84 88 82 39 41 30 28
6 6 9 16 25 62 72 50 100 100 98 100 100 87 79 54 56 47 37 65 83 61 97 100 66 50 92 100 89 84 80 81 81 71 81 69 32 43 50 37 36 40 46 54 74 58 40 26 26
8 6 6 10 9 22 58 68 44 100 100 94 100 97 77 80 54 44 39 29 34 49 84 91 92 50 74 100 91 82 83 74 71 65 75 82 54 33 33 38 35 30 30 28 43 36 27 26 26
8 7 6 7 9 10 22 65 80 92 100 100 100 99 84 68 43 66 67 49 37 36 36 87 87 78 38 54 69 75 60 81 77 69 81 89 89 47 42 39 43 35 31 28 27 34 28 26 24
8 7 7 6 8 9 13 24 56 75 100 100 100 100 100 68 77 78 99 59 41 29 36 47 62 84 45 36 43 56 83 74 92 82 72 81 88 71 46 44 48 39 31 30 29 33 29 27 24
9 7 7 7 8 8 10 17 25 59 90 100 100 100 100 86 75 67 99 76 35 26 29 35 47 51 52 43 35 31 40 61 60 90 79 75 84 87 67 49 47 49 42 39 28 28 31 30 28
10 9 7 7 7 9 9 13 18 27 53 74 100 100 100 100 100 92 100 80 41 37 29 29 41 57 44 44 31 23 24 25 36 49 88 79 73 64 67 60 51 50 30 34 34 25 27 26 27
10 10 10 7 6 7 9 13 17 22 30 40 88 100 100 100 100 100 100 89 71 44 32 29 23 20 31 34 24 18 19 21 27 30 81 73 73 57 52 55 55 47 38 30 31 29 23 22 19
10 10 10 9 7 7 8 11 16 20 22 29 43 84 100 100 100 100 100 100 81 84 67 57 32 22 28 24 25 20 20 22 26 28 69 63 41 42 38 38 40 38 38 28 34 27 31 30 20
10 11 11 10 10 7 8 9 12 17 22 23 27 32 83 100 100 100 100 100 100 100 100 89 47 36 44 34 28 26 24 26 34 37 54 61 55 33 32 36 28 35 31 26 29 34 26 27 21
11 10 10 11 11 8 8 8 9 12 17 20 22 23 29 77 100 100 100 100 100 100 100 100 75 60 48 25 34 32 32 33 43 31 40 52 45 38 26 36 29 20 34 27 22 24 29 24 27
10 11 10 10 11 11 9 8 8 8 10 16 20 20 21 25 97 100 100 100 100 100 100 100 100 85 62 43 44 49 40 41 46 51 49 39 42 35 31 26 21 17 22 28 30 23 26 34 34
11 10 10 10 10 10 11 10 9 8 8 10 14 17 17 20 46 97 100 100 100 96 100 100 100 100 81 65 68 71 61 65 50 68 44 30 42 40 33 25 21 21 19 40 37 32 31 27 41
11 10 10 10 10 10 11 13 11 10 9 8 9 11 12 18 20 100 98 100 100 100 100 100 100 97 88 89 85 91 78 67 57 54 49 42 41 38 40 26 23 22 21 25 44 44 32 29 38
12 11 10 10 10 11 11 12 12 12 13 10 9 8 9 12 17 62 100 100 100 100 100 100 100 100 100 100 96 96 92 81 71 65 64 45 45 41 38 28 31 27 32 33 35 37 40 35 43
10 11 10 10 10 10 11 13 12 12 12 12 10 8 8 8 11 16 59 100 100 100 100 100 100 100 100 100 100 100 97 98 84 72 64 52 48 33 40 37 36 36 45 54 54 53 63 55 68
12 11 9 9 10 9 11 12 12 12 12 12 12 10 8 8 8 10 16 53 100 100 100 100 100 100 100 100 100 100 100 100 100 92 66 56 55 49 57 65 53 57 54 77 74 75 81 91 89
14 12 10 9 9 9 10 12 11 11 12 12 13 13 11 9 8 8 13 14 40 100 100 100 100 100 100 100 100 100 100 100 100 100 91 84 80 84 84 94 92 85 73 86 74 76 98 98 100
15 14 11 10 10 10 10 11 11 12 12 12 14 14 14 11 10 8 9 11 15 28 100 100 100 100 100 100 100 100 100 100 100 100 100 100 100 94 92 84 82 95 96 100 98 99 100 100 100
15 16 13 11 11 10 11 10 10 12 12 12 14 16 15 15 12 11 11 13 12 14 19 98 100 100 100 100 100 100 100 100 100 100 100 100 100 100 100 100 100 100 100 100 100 100 100 100 100
17 15 15 12 11 11 11 10 10 12 12 12 13 14 16 16 15 14 14 15 18 16 16 18 42 100 100 100 100 100 100 100 100 100 100 100 100 100 100 100 100 100 100 100 100 100 100 100 97
18 16 16 15 12 11 11 11 10 12 13 13 14 14 16 17 16 16 16 14 16 20 19 20 19 19 49 95 100 100 100 100 100 100 100 100 100 100 100 100 100 100 100 100 100 100 100 100 100
19 17 15 15 14 12 13 12 10 12 13 12 13 15 15 17 17 16 17 16 16 16 18 22 23 22 20 22 29 59 100 100 100 100 100 100 100 100 100 100 100 100 100 100 100 100 100 100 99
19 18 17 15 15 14 14 12 11 13 13 13 13 14 15 16 16 16 16 16 17 17 17 17 19 23 26 24 21 21 36 61 88 96 100 100 100 100 100 100 100 100 100 100 100 100 100 98 100
19 18 18 16 15 15 14 13 13 12 13 13 14 14 14 14 15 15 14 14 14 16 17 17 17 19 23 32 34 28 26 32 70 93 96 86 98 100 100 100 98 98 100 100 100 100 100 100 100
17 18 18 17 16 16 14 15 13 13 13 13 13 14 15 15 14 15 14 14 14 14 16 17 17 17 19 22 24 28 33 33 29 26 25 23 23 25 60 94 28 37 95 92 76 61 41 84 73
18 17 17 17 16 16 15 15 15 15 14 14 13 14 14 14 14 16 16 14 13 13 13 15 18 18 18 18 18 20 26 29 32 34 34 32 30 27 24 23 23 23 25 25 21 21 25 19 17
16 16 16 15 15 15 15 16 18 17 16 15 14 14 13 14 15 14 14 15 15 13 12 12 13 15 18 19 18 19 20 22 24 25 25 28 31 32 31 30 30 26 26 23 22 23 23 21 22
Wind_Speed
101 99 105 106 105 95 86 83 84 83 84 82 79 75 72 61 59 57 57 63 57 56 50 49 47 51 46 44 42 38 35 33 31 27 26 27 27 25 23 20 21 22 20 18 19 18 15 16 15
91 103 106 109 105 99 89 88 87 88 87 87 84 80 80 77 69 63 65 57 55 57 54 52 52 49 53 47 47 44 40 41 38 33 29 29 28 26 22 22 20 20 23 24 20 20 19 19 15
94 106 110 108 104 104 97 97 95 92 91 84 87 88 84 83 76 68 72 68 62 58 54 54 54 53 55 52 50 48 45 43 42 38 36 31 31 26 26 25 25 23 24 25 25 22 23 19 19
94 100 115 108 104 111 108 110 101 96 87 92 89 87 86 85 85 79 77 74 74 69 62 55 52 54 53 56 52 52 49 45 44 41 39 36 33 31 27 27 27 25 23 25 26 25 22 22 19
88 99 106 112 100 110 113 113 110 100 96 95 93 90 90 87 88 87 86 86 79 76 69 67 65 62 54 56 52 51 51 50 46 45 43 42 40 38 35 33 29 28 25 26 26 25 24 23 23
87 96 102 100 109 111 115 115 119 108 103 96 93 94 93 92 87 88 86 83 83 79 76 74 68 66 64 58 56 53 51 51 50 47 45 46 45 42 40 39 37 33 30 29 28 29 26 26 25
85 91 96 105 105 113 113 116 118 115 109 103 89 89 92 93 92 92 90 85 86 84 81 78 72 67 67 64 57 57 56 52 53 53 52 50 48 46 45 44 42 38 37 35 33 34 34 31 29
81 91 92 96 104 108 116 118 121 120 114 107 102 90 89 92 95 94 91 92 90 90 89 86 77 82 76 73 68 64 63 61 57 58 59 57 56 55 49 47 44 43 41 41 39 37 38 34 31
76 81 89 92 106 105 120 116 118 124 119 118 110 102 96 95 95 90 95 96 92 96 93 87 86 84 80 81 74 68 66 68 66 62 62 60 61 59 54 53 49 46 46 47 43 43 42 40 40
67 73 85 98 105 111 114 115 121 129 125 120 114 116 106 102 100 96 97 92 90 95 94 89 92 91 88 81 75 73 67 73 71 66 63 60 60 57 56 56 54 54 51 50 48 48 49 43 42
63 66 84 93 101 107 115 116 121 127 130 128 124 118 117 107 103 100 104 100 99 98 100 101 97 91 87 81 84 81 74 76 75 71 66 63 62 61 61 60 59 58 57 56 54 52 51 45 46
58 67 75 84 96 107 112 115 117 124 133 129 126 121 119 120 110 106 105 103 99 99 98 101 97 92 93 92 89 86 81 83 82 79 73 70 67 64 62 67 65 64 62 59 59 57 57 55 52
58 64 69 75 88 102 109 113 115 116 124 126 129 125 122 121 118 113 109 108 103 101 101 102 101 97 97 92 94 89 85 84 86 84 78 79 73 68 68 69 70 70 69 67 63 63 66 64 59
54 61 67 73 80 90 104 110 113 119 118 128 130 126 122 121 121 119 115 111 113 109 108 105 101 99 96 96 92 93 90 90 90 84 83 83 79 74 76 75 77 71 71 75 74 68 65 70 70
59 60 63 68 76 83 97 105 111 117 120 125 130 132 122 125 121 122 119 119 114 112 116 114 109 104 99 99 98 97 95 91 93 87 86 85 83 81 83 81 79 78 76 79 82 78 72 70 76
58 59 63 66 71 79 91 100 110 114 119 123 128 130 129 119 124 121 123 123 121 120 120 118 115 110 107 103 103 102 98 93 95 93 90 91 90 90 90 86 85 84 83 82 85 81 83 76 78
58 62 66 66 72 75 85 93 98 109 116 122 124 127 129 128 121 125 120 127 125 124 123 121 118 115 114 109 110 108 104 100 102 99 98 97 98 97 95 91 88 88 88 89 85 83 86 86 83
58 61 64 69 69 72 81 87 95 103 111 117 123 125 128 130 126 124 128 119 127 127 127 125 124 121 119 115 114 114 111 108 108 106 104 105 103 99 98 97 94 92 94 91 89 88 92 94 90
59 60 60 66 69 72 77 85 92 97 105 112 117 123 127 129 130 125 123 129 121 126 129 128 127 124 124 121 119 119 117 114 111 107 106 107 104 104 106 100 101 97 95 96 95 94 94 96 96
63 62 63 60 70 71 77 82 91 91 99 107 113 121 125 127 128 128 125 124 128 129 127 130 130 130 128 125 125 123 121 119 117 112 109 110 110 109 109 109 104 104 103 104 101 102 102 100 101
65 66 65 64 68 69 74 79 85 88 94 101 106 113 122 127 127 129 127 126 126 128 133 126 126 131 132 130 130 128 127 124 124 119 116 117 116 114 113 111 111 110 108 109 107 106 106 103 103
63 66 67 68 69 69 73 78 81 84 88 93 100 105 113 122 126 128 128 129 128 129 131 138 131 129 123 124 126 129 128 127 127 121 122 122 122 121 120 119 117 116 114 111 112 111 110 108 107
62 65 67 70 72 72 73 75 74 80 84 89 94 101 107 114 121 124 127 131 132 130 131 132 139 142 135 131 129 125 123 124 129 129 126 122 124 125 124 123 119 117 116 114 114 111 108 108 106
60 66 68 70 72 72 74 76 74 78 83 86 91 96 102 109 114 120 123 127 130 132 132 132 132 134 142 146 142 135 133 129 127 124 125 128 125 123 122 119 116 114 115 115 114 113 112 113 114
59 64 68 71 72 73 74 78 70 77 82 84 88 92 98 104 109 113 119 123 126 129 132 133 134 134 134 137 142 144 148 148 147 141 135 132 130 126 126 127 126 124 125 123 121 120 117 116 116
59 63 68 70 71 74 75 77 74 75 80 83 85 90 95 100 105 110 113 118 124 128 130 133 134 135 135 134 135 136 139 144 141 137 139 139 138 135 134 134 130 130 131 126 123 123 123 120 121
59 63 67 71 74 76 77 77 78 77 80 82 84 87 92 97 102 106 111 115 119 123 128 130 132 134 134 135 135 135 135 135 139 141 141 139 141 140 134 137 136 135 134 131 128 127 126 124 124
57 61 65 69 73 76 78 79 78 80 82 83 86 89 91 95 100 105 109 113 116 119 123 126 128 130 132 134 134 135 136 136 135 135 134 134 133 129 134 139 131 133 137 137 136 132 127 131 128
57 59 63 66 70 74 78 78 81 82 84 84 86 89 91 94 98 101 105 109 112 115 118 121 124 128 130 132 134 135 136 136 136 135 135 133 131 130 129 128 127 126 125 126 126 124 124 123 122
55 57 60 63 65 70 75 75 79 83 85 87 88 90 91 94 97 100 103 106 109 111 113 115 119 124 127 130 132 135 137 138 137 136 135 134 134 133 132 131 130 130 128 128 127 127 126 125 124
Wind_Direction
218 222 221 219 219 224 220 222 220 222 222 219 221 222 229 223 227 226 233 231 237 233 235 242 244 234 229 234 233 234 234 240 248 253 253 251 252 256 257 261 271 283 289 300 312 319 315 313 319
220 220 223 219 217 219 221 225 218 219 221 223 222 222 220 228 225 223 225 230 239 235 236 242 242 240 235 235 235 234 241 242 244 251 254 251 248 248 252 262 260 264 273 284 298 309 317 314 311
219 219 221 222 218 217 223 225 220 219 222 222 223 224 224 227 225 229 226 230 227 238 241 242 240 240 243 236 233 234 238 243 245 245 251 248 244 244 249 258 262 262 271 277 282 302 303 311 307
223 217 219 221 218 218 220 223 226 221 220 221 224 223 224 227 228 231 226 232 233 234 238 235 236 238 243 240 234 236 239 243 244 241 247 247 246 243 258 258 267 264 268 274 274 285 300 303 303
230 220 218 218 220 221 221 222 225 220 221 223 222 223 226 228 230 235 235 235 235 237 235 239 241 241 239 243 243 241 241 243 244 241 244 247 250 254 258 263 269 267 268 274 275 285 291 294 294
233 226 220 217 219 221 221 222 225 224 218 221 220 224 227 228 229 229 229 232 235 237 238 237 238 237 240 237 242 245 245 247 243 243 243 246 249 252 257 262 263 266 274 272 276 282 287 287 288
232 230 225 218 218 221 223 222 224 226 218 219 215 221 223 225 225 224 230 232 231 237 236 234 236 235 239 240 242 245 247 247 249 247 244 247 247 253 255 261 264 269 274 272 277 279 280 284 279
231 229 226 225 220 221 221 223 224 225 221 215 215 219 220 224 227 226 228 232 235 239 234 234 237 239 237 240 241 244 247 247 248 249 248 248 249 253 256 257 261 264 269 271 272 277 278 279 274
235 227 225 226 223 221 222 223 224 223 224 225 218 219 219 224 222 223 224 229 232 231 232 234 235 235 236 238 240 246 252 246 249 250 250 252 252 254 258 256 256 262 274 268 271 275 278 283 276
235 229 224 223 224 222 223 225 223 224 224 226 226 216 222 223 220 222 223 226 225 227 227 231 231 238 235 234 240 243 251 251 247 248 249 250 254 256 259 255 257 267 268 271 271 277 272 278 278
233 229 225 222 222 223 223 226 226 225 222 225 227 225 226 227 225 223 221 224 226 232 235 234 236 238 233 239 247 245 247 247 248 246 246 249 252 253 256 259 261 266 267 269 270 273 270 274 276
232 228 229 224 223 222 225 225 226 227 223 223 226 228 229 227 225 225 222 224 224 228 229 233 235 233 234 244 244 244 247 247 247 245 245 251 253 255 256 256 262 265 266 269 269 267 269 269 273
235 232 229 226 225 222 224 225 226 228 227 224 224 228 228 229 229 227 228 223 223 227 229 231 233 239 240 243 239 240 243 244 244 246 242 248 250 253 255 255 260 265 264 266 267 267 267 266 268
241 234 230 227 226 225 224 225 226 228 228 226 224 224 227 228 229 227 226 224 227 227 229 232 234 236 235 234 239 238 240 243 242 239 243 244 248 253 253 258 262 262 262 264 266 266 271 268 267
242 238 232 229 226 226 227 226 225 226 227 228 227 225 226 226 227 228 228 224 227 229 229 233 233 233 235 237 241 235 242 241 240 242 243 244 248 250 253 258 260 258 263 261 263 263 268 273 270
243 241 237 230 227 224 226 226 226 225 227 228 228 228 226 226 227 224 226 227 227 228 230 232 233 234 234 239 242 238 240 239 238 240 243 245 249 251 254 256 261 258 257 263 261 262 261 267 274
243 240 237 232 229 223 224 227 227 228 227 226 227 228 228 227 226 223 222 226 227 228 230 231 232 232 235 239 241 239 238 240 241 244 243 246 249 252 251 252 256 256 260 261 263 259 260 262 269
243 242 237 233 232 225 223 224 227 227 228 228 228 228 229 229 228 226 225 223 227 229 230 231 233 232 235 238 239 238 239 241 242 244 246 246 249 249 249 254 254 255 257 258 260 262 260 262 267
246 243 238 234 232 226 225 225 226 228 229 228 229 229 229 229 229 228 228 227 223 228 229 231 232 234 235 237 237 238 238 243 243 245 246 247 249 249 249 252 251 255 258 257 259 261 261 264 266
245 243 241 235 234 230 226 226 227 229 229 228 228 229 228 228 229 230 228 229 229 226 229 232 233 234 236 237 237 238 239 242 243 245 245 244 246 247 250 252 254 255 257 257 261 262 261 264 264
243 243 242 238 237 233 230 229 227 228 229 228 228 229 229 229 228 230 230 230 229 230 227 227 231 235 235 236 236 238 240 241 241 244 244 245 246 249 251 253 255 256 257 258 260 261 261 264 265
241 241 241 240 239 235 235 232 229 229 230 231 230 229 229 230 229 229 231 232 232 231 230 230 229 229 230 235 238 239 239 241 242 244 245 246 246 247 249 251 253 254 255 257 259 259 260 261 263
241 241 240 238 238 238 237 234 231 231 230 230 230 229 229 229 230 230 231 232 233 233 233 232 233 230 232 233 233 234 235 240 242 243 245 247 248 248 249 252 254 255 253 256 259 261 260 261 263
240 240 239 239 238 237 237 237 230 232 230 231 230 229 229 229 230 230 231 232 234 234 235 235 235 235 236 235 235 235 235 237 240 241 244 247 247 247 247 249 250 250 254 257 256 258 258 258 258
239 239 238 237 237 236 237 237 232 232 232 230 231 231 230 230 230 231 232 232 233 235 236 236 237 237 237 237 239 240 240 241 242 244 245 245 246 248 249 249 250 252 254 254 257 258 259 260 262
239 237 238 238 237 236 235 237 234 233 233 231 232 232 231 231 231 232 232 234 234 234 235 236 237 238 239 239 240 240 241 242 244 245 246 245 246 246 249 252 253 254 255 258 258 259 257 260 260
241 239 238 237 236 236 236 235 235 233 233 233 232 232 233 233 233 233 233 234 235 236 236 237 238 238 239 240 241 242 242 244 244 245 247 248 248 248 251 251 254 256 256 257 257 259 260 261 262
244 242 241 239 238 237 236 235 234 234 234 234 233 232 232 233 234 234 234 235 236 236 237 238 238 239 240 241 242 243 243 244 245 245 247 248 249 251 253 253 256 257 256 258 261 262 261 262 263
246 243 242 240 239 238 237 236 236 234 235 235 235 234 233 233 234 235 236 236 236 237 237 238 240 241 241 241 243 244 244 245 245 246 247 248 249 250 251 252 254 255 256 257 258 260 260 261 263
246 244 243 243 241 240 240 236 237 236 236 237 236 235 235 235 235 236 236 237 238 238 239 239 239 240 241 243 243 243 243 244 245 246 247 248 248 249 250 252 252 254 255 256 257 258 259 260 262